Stations météo

Publicité
Split/Marjan, Croatie (14445): Température de l'air & dewpoint: 12.09.2018 18:00:00 - 18.09.2018 18:00:00 (CEST)Split/Marjan, Croatie (14445): water temperature: 12.09.2018 18:00:00 - 18.09.2018 18:00:00 (CEST)Split/Marjan, Croatie (14445): Vitesse du vent: 12.09.2018 18:00:00 - 18.09.2018 18:00:00 (CEST)Split/Marjan, Croatie (14445): Direction du vent: 12.09.2018 18:00:00 - 18.09.2018 18:00:00 (CEST)Split/Marjan, Croatie (14445): reduced air pressure: 12.09.2018 18:00:00 - 18.09.2018 18:00:00 (CEST)Split/Marjan, Croatie (14445): visibility: 12.09.2018 18:00:00 - 18.09.2018 18:00:00 (CEST)
Date & Time tt [°C] td [°C] tw [°C] ff [km/h] ff [knt] dd ppp [hPa] vv [km]
18.09.2018 18:00:00 - - - - - - - -
18.09.2018 17:00:00 27,9 16,9 - 11 6 SW 1018,0 30
18.09.2018 16:00:00 28,1 17,5 - 11 6 SW 1018,0 30
18.09.2018 15:00:00 28,2 17,3 - 11 6 SW 1018,4 30
18.09.2018 14:00:00 28,2 14,1 24,8 14 8 SW 1018,9 30
18.09.2018 13:00:00 27,9 10,1 - 11 6 WSW 1019,2 30
18.09.2018 12:00:00 - - - - - - - -
18.09.2018 11:00:00 26,3 11,1 - 4 2 S 1019,6 40
18.09.2018 10:00:00 25,3 12,7 - 7 4 S 1019,7 40
18.09.2018 09:00:00 23,8 10,7 - 11 6 ENE 1019,4 40
18.09.2018 08:00:00 22,4 11,0 25,2 7 4 NE 1019,4 40
18.09.2018 07:00:00 21,6 11,6 - 11 6 ENE 1018,9 40
18.09.2018 06:00:00 21,7 11,7 - 7 4 ENE 1018,7 20
18.09.2018 05:00:00 22,0 11,7 - 14 8 ENE 1018,4 20
18.09.2018 04:00:00 - - - - - - - -
18.09.2018 03:00:00 - - - - - - - -
18.09.2018 02:00:00 23,1 15,1 - 7 4 ENE 1018,5 20
18.09.2018 01:00:00 - - - - - - - -
18.09.2018 00:00:00 - - - - - - - -
17.09.2018 23:00:00 24,4 16,4 - 0 0 N 1019,2 20
17.09.2018 22:00:00 24,9 17,8 - 0 0 N 1019,5 20
17.09.2018 21:00:00 25,0 17,4 - 4 2 W 1019,5 20
17.09.2018 20:00:00 25,5 16,0 - 4 2 W 1019,1 20
17.09.2018 19:00:00 - - - - - - - -
17.09.2018 18:00:00 - - - - - - - -
17.09.2018 17:00:00 28,1 13,2 - 14 8 WSW 1018,6 30
17.09.2018 16:00:00 28,5 13,1 - 18 10 WSW 1019,1 30
17.09.2018 15:00:00 28,9 13,0 - 11 6 WSW 1019,6 30
17.09.2018 14:00:00 29,4 13,5 24,5 11 6 WSW 1019,9 30
17.09.2018 13:00:00 28,9 12,2 - 14 8 SW 1020,5 30
17.09.2018 12:00:00 28,1 15,1 - 11 6 WSW 1020,7 30
17.09.2018 11:00:00 27,0 13,7 - 11 6 WSW 1021,1 30
17.09.2018 10:00:00 25,8 12,1 - 4 2 SSE 1021,1 30
17.09.2018 09:00:00 24,0 12,4 - 7 4 ENE 1021,0 30
17.09.2018 08:00:00 23,0 10,9 24,0 7 4 E 1020,9 30
17.09.2018 07:00:00 22,1 10,6 - 14 8 ENE 1020,6 25
17.09.2018 06:00:00 22,2 10,9 - 14 8 ENE 1020,7 20
17.09.2018 05:00:00 22,4 11,8 - 11 6 ENE 1020,7 20
17.09.2018 04:00:00 - - - - - - - -
17.09.2018 03:00:00 - - - - - - - -
17.09.2018 02:00:00 23,2 14,3 - 11 6 ENE 1020,8 20
17.09.2018 01:00:00 - - - - - - - -
17.09.2018 00:00:00 - - - - - - - -
16.09.2018 23:00:00 24,7 15,0 - 4 2 N 1021,1 20
16.09.2018 22:00:00 25,2 15,0 - 7 4 N 1021,0 20
16.09.2018 21:00:00 25,8 14,9 - 0 0 N 1021,0 20
16.09.2018 20:00:00 26,2 13,8 - 0 0 N 1020,4 20
16.09.2018 19:00:00 - - - - - - - -
16.09.2018 18:00:00 - - - - - - - -
16.09.2018 17:00:00 28,4 12,3 - 14 8 WSW 1020,1 25
16.09.2018 16:00:00 29,2 15,0 - 14 8 WSW 1020,4 25
16.09.2018 15:00:00 29,5 14,4 - 14 8 WSW 1020,7 25
16.09.2018 14:00:00 29,2 15,4 25,0 14 8 SW 1021,4 30
16.09.2018 13:00:00 28,7 12,5 - 14 8 WSW 1021,6 30
16.09.2018 12:00:00 28,2 11,0 - 11 6 S 1021,8 25
16.09.2018 11:00:00 27,3 10,5 - 7 4 SSE 1021,8 30
16.09.2018 10:00:00 25,8 11,3 - 4 2 E 1021,7 25
16.09.2018 09:00:00 24,3 11,4 - 7 4 ENE 1021,4 15
16.09.2018 08:00:00 23,1 12,1 24,5 7 4 E 1020,7 25
16.09.2018 07:00:00 22,4 12,0 - 14 8 ENE 1020,5 25
16.09.2018 06:00:00 22,6 12,4 - 14 8 ENE 1020,3 20
16.09.2018 05:00:00 22,8 13,4 - 14 8 ENE 1020,2 20
16.09.2018 04:00:00 - - - - - - - -
16.09.2018 03:00:00 - - - - - - - -
16.09.2018 02:00:00 24,1 14,1 - 18 10 ENE 1020,3 20
16.09.2018 01:00:00 - - - - - - - -
16.09.2018 00:00:00 - - - - - - - -
15.09.2018 23:00:00 24,1 19,4 - 7 4 ESE 1019,7 20
15.09.2018 22:00:00 24,4 20,3 - 7 4 ESE 1019,6 20
15.09.2018 21:00:00 25,2 19,9 - 7 4 ENE 1019,2 20
15.09.2018 20:00:00 25,2 19,3 - 0 0 N 1018,5 20
15.09.2018 19:00:00 - - - - - - - -
15.09.2018 18:00:00 - - - - - - - -
15.09.2018 17:00:00 27,1 19,7 - 14 8 WSW 1018,0 30
15.09.2018 16:00:00 26,1 18,2 - 7 4 NNW 1018,2 25
15.09.2018 15:00:00 27,6 18,8 - 7 4 NNW 1018,7 20
15.09.2018 14:00:00 28,4 18,4 24,5 14 8 WSW 1018,3 20
15.09.2018 13:00:00 28,0 18,6 - 14 8 WSW 1018,5 20
15.09.2018 12:00:00 27,1 15,9 - 11 6 WSW 1018,7 20
15.09.2018 11:00:00 26,2 16,6 - 7 4 SSW 1018,6 18
15.09.2018 10:00:00 25,1 19,0 - 7 4 S 1018,4 15
15.09.2018 09:00:00 24,0 19,4 - 7 4 SSE 1018,2 15
15.09.2018 08:00:00 22,1 16,0 24,5 11 6 ENE 1017,7 15
15.09.2018 07:00:00 21,8 17,2 - 7 4 ESE 1016,9 15
15.09.2018 06:00:00 22,0 17,1 - 4 2 NNE 1016,7 20
15.09.2018 05:00:00 22,0 18,4 - 4 2 E 1016,3 20
15.09.2018 04:00:00 - - - - - - - -
15.09.2018 03:00:00 - - - - - - - -
15.09.2018 02:00:00 23,1 18,9 - 7 4 WSW 1016,8 20
15.09.2018 01:00:00 - - - - - - - -
15.09.2018 00:00:00 - - - - - - - -
14.09.2018 23:00:00 23,8 16,9 - 4 2 W 1016,2 20
14.09.2018 22:00:00 24,4 15,9 - 4 2 SSE 1016,0 20
14.09.2018 21:00:00 24,8 15,8 - 7 4 WNW 1015,8 20
14.09.2018 20:00:00 25,2 15,2 - 7 4 WSW 1015,4 20
14.09.2018 19:00:00 - - - - - - - -
14.09.2018 18:00:00 - - - - - - - -
14.09.2018 17:00:00 27,6 17,4 - 11 6 WSW 1014,6 25
14.09.2018 16:00:00 28,3 16,5 - 11 6 WSW 1014,6 25
14.09.2018 15:00:00 28,5 15,7 - 11 6 WSW 1014,6 25
14.09.2018 14:00:00 28,3 16,5 24,0 14 8 WSW 1014,8 25
14.09.2018 13:00:00 27,6 16,4 - 7 4 WSW 1015,0 25
14.09.2018 12:00:00 27,2 16,9 - 7 4 WSW 1015,1 25
14.09.2018 11:00:00 26,4 18,2 - 7 4 SSW 1015,0 30
14.09.2018 10:00:00 23,4 15,6 - 7 4 ESE 1014,7 30
14.09.2018 09:00:00 23,1 14,9 - 7 4 ENE 1014,4 30
14.09.2018 08:00:00 23,0 13,7 24,2 7 4 ENE 1014,1 30
14.09.2018 07:00:00 22,2 13,9 - 7 4 ENE 1013,8 35
14.09.2018 06:00:00 22,2 15,6 - 4 2 ENE 1013,5 20
14.09.2018 05:00:00 22,3 16,3 - 7 4 E 1013,3 20
14.09.2018 04:00:00 - - - - - - - -
14.09.2018 03:00:00 - - - - - - - -
14.09.2018 02:00:00 23,5 20,1 - 7 4 E 1013,5 20
14.09.2018 01:00:00 - - - - - - - -
14.09.2018 00:00:00 - - - - - - - -
13.09.2018 23:00:00 24,4 19,4 - 7 4 W 1013,6 20
13.09.2018 22:00:00 24,6 19,0 - 0 0 N 1013,4 20
13.09.2018 21:00:00 24,5 19,0 - 0 0 N 1013,6 20
13.09.2018 20:00:00 25,0 19,1 - 0 0 N 1013,6 20
13.09.2018 19:00:00 - - - - - - - -
13.09.2018 18:00:00 - - - - - - - -
13.09.2018 17:00:00 28,5 15,5 - 14 8 SW 1013,2 40
13.09.2018 16:00:00 29,5 15,6 - 14 8 SW 1013,4 40
13.09.2018 15:00:00 28,5 15,7 - 7 4 WSW 1014,2 35
13.09.2018 14:00:00 28,0 15,2 23,8 22 12 SW 1014,6 30
13.09.2018 13:00:00 28,3 14,1 - 7 4 WSW 1014,9 35
13.09.2018 12:00:00 28,6 13,5 - 7 4 SSE 1015,1 30
13.09.2018 11:00:00 28,4 13,2 - 7 4 SSE 1015,4 30
13.09.2018 10:00:00 26,9 13,2 - 7 4 ESE 1015,5 35
13.09.2018 09:00:00 25,2 12,8 - 7 4 E 1015,6 40
13.09.2018 08:00:00 23,6 12,9 24,2 14 8 ENE 1015,6 40
13.09.2018 07:00:00 23,1 11,9 - 7 4 ENE 1015,6 40
13.09.2018 06:00:00 23,1 11,5 - 14 8 ENE 1015,7 30
13.09.2018 05:00:00 23,4 11,7 - 7 4 ENE 1015,8 20
13.09.2018 04:00:00 - - - - - - - -
13.09.2018 03:00:00 - - - - - - - -
13.09.2018 02:00:00 24,9 12,4 - 7 4 E 1016,7 20
13.09.2018 01:00:00 - - - - - - - -
13.09.2018 00:00:00 - - - - - - - -
12.09.2018 23:00:00 26,0 13,6 - 7 4 NNE 1017,4 20
12.09.2018 22:00:00 26,0 13,4 - 14 8 ENE 1017,9 20
12.09.2018 21:00:00 26,0 15,5 - 7 4 NNW 1018,4 20
12.09.2018 20:00:00 26,3 13,4 - 4 2 SW 1018,4 30
12.09.2018 19:00:00 - - - - - - - -
12.09.2018 18:00:00 - - - - - - - -

tt = Température de l'air
td = dewpoint
tw = water temperature
ff = Vitesse du vent
dd = Direction du vent
ppp = reduced air pressure
vv = visibility

stations d'obs. à proximité